Tacoma Narrows, WA
on Wednesday, November 7, 2012

Wednesday
Previous Day Next Day
Daily Summary
 ActualAverageRecord
Temperature
Mean Temperature °F °F  
Max Temperature 53°F 50°F 61°F (2008)
Min Temperature 43°F 41°F 36°F (2003)
Degree Days
Heating Degree Days 16    
Moisture
Dew Point 39°F   
Average Humidity 72    
Maximum Humidity 86    
Minimum Humidity 52    
Precipitation
Precipitation 0.01 in in in ()
Wind
Wind Speed 8 mph   
Max Wind Speed 12 mph   
Max Gust Speed 20 mph   
Visibility 10 miles   
Events     
Averages and records for this station are not official NWS values.
Key: T is trace of precipitation, MM is missing value
Source: NWS Daily Summary
Seasonal Weather Averages
Time(PST)TemperatureDew PointHumidity Pressure Visibility Wind DirectionWind SpeedGust SpeedPrecipitationEvents Conditions
12:53 AM 50.0°F 43.0°F 77% 30.06 in 10.0 miles SW 11.5 mph 19.6 mph N/A   Clear
1:53 AM 48.9°F 43.0°F 80% 30.07 in 10.0 miles SSW 9.2 mph 17.3 mph N/A   Clear
2:53 AM 48.0°F 42.1°F 80% 30.09 in 10.0 miles SSW 9.2 mph - N/A   Clear
3:53 AM 46.9°F 41.0°F 80% 30.09 in 10.0 miles South 11.5 mph - N/A   Clear
4:53 AM 46.9°F 41.0°F 80% 30.10 in 10.0 miles SSW 11.5 mph - N/A   Clear
5:53 AM 46.0°F 41.0°F 83% 30.11 in 10.0 miles SSW 11.5 mph - N/A   Clear
6:53 AM 45.0°F 41.0°F 86% 30.12 in 10.0 miles South 10.4 mph 18.4 mph N/A   Clear
7:53 AM 46.0°F 41.0°F 83% 30.13 in 10.0 miles SSW 10.4 mph - N/A   Scattered Clouds
8:53 AM 48.0°F 41.0°F 77% 30.14 in 10.0 miles SSW 6.9 mph - N/A   Clear
8:58 AM 48.2°F 41.0°F 76% 30.13 in 10.0 miles South 6.9 mph - N/A   Scattered Clouds
9:53 AM 50.0°F 39.0°F 66% 30.14 in 10.0 miles SW 8.1 mph - N/A   Scattered Clouds
10:53 AM 51.1°F 39.0°F 63% 30.14 in 10.0 miles SSW 11.5 mph - N/A   Scattered Clouds
11:53 AM 52.0°F 39.0°F 61% 30.13 in 10.0 miles SW 8.1 mph - N/A   Scattered Clouds
12:53 PM 53.1°F 36.0°F 52% 30.12 in 10.0 miles SW 9.2 mph - 0.01 in   Scattered Clouds
1:53 PM 53.1°F 36.0°F 52% 30.10 in 10.0 miles SSW 8.1 mph - N/A   Scattered Clouds
2:53 PM 52.0°F 37.9°F 59% 30.09 in 10.0 miles South 9.2 mph - N/A   Scattered Clouds
3:53 PM 51.1°F 36.0°F 56% 30.08 in 10.0 miles SW 4.6 mph - N/A   Clear
4:53 PM 48.0°F 37.0°F 66% 30.07 in 10.0 miles Calm Calm - N/A   Scattered Clouds
5:53 PM 46.9°F 37.0°F 68% 30.06 in 10.0 miles Calm Calm - N/A   Scattered Clouds
6:53 PM 46.9°F 37.9°F 71% 30.05 in 10.0 miles Calm Calm - N/A   Mostly Cloudy
7:53 PM 46.0°F 39.0°F 76% 30.04 in 10.0 miles SE 3.5 mph - N/A   Partly Cloudy
8:53 PM 46.0°F 37.9°F 73% 30.02 in 10.0 miles SE 3.5 mph - N/A   Overcast
9:53 PM 44.1°F 39.0°F 82% 30.00 in 10.0 miles Calm Calm - N/A   Overcast
10:53 PM 44.1°F 37.9°F 79% 29.97 in 10.0 miles Calm Calm - N/A   Clear
11:53 PM 43.0°F 36.0°F 76% 29.95 in 10.0 miles Calm Calm - N/A   Clear
Moon Phase
Nov. 07 Nov. 13 Nov. 20 Nov. 28 Dec. 06
Sunrise:07:03 AM (PST) Moon Rise:No Moon Rise/
Sunset:04:43 PM (PST) Moon Set:01:20 PM (PST)11/7

Copyright © 2014 The Weather Underground, Inc.